When you browse on this site, cookies collect data to enhance your experience and personalize the content and advertising you see.
Visit our Privacy Policy to learn more. By continuing to use the site, you agree to this use of cookies and data.
  • In Austria
  • List of Countries
  • For 7 days
  • Water Temperature
  • Weather Map
  • News
  • Weather Widgets
  • user-avatar
    Login

    Hourly Weather Jewłach

    Today, 22 October, Tuesday

    Time Temperature Precipitation Wind Pressure Humidity
    00:00 +17°C° 0 mm 3 mps 766 mmHg 65%
    01:00 +16°C° 0 mm 3 mps 766 mmHg 68%
    02:00 +16°C° 0 mm 2 mps 765 mmHg 71%
    03:00 +15°C° 0 mm 2 mps 765 mmHg 74%
    04:00 +15°C° 0 mm 1 mps 765 mmHg 76%
    05:00 +14°C° 0 mm 1 mps 765 mmHg 79%
    06:00 +14°C° 0 mm 1 mps 765 mmHg 82%
    07:00 +16°C° 0 mm 1 mps 765 mmHg 75%
    08:00 +18°C° 0 mm 1 mps 766 mmHg 68%
    09:00 +20°C° 0 mm 1 mps 766 mmHg 61%
    10:00 +20°C° 0 mm 2 mps 765 mmHg 55%
    11:00 +21°C° 0 mm 2 mps 765 mmHg 48%
    12:00 +24°C° 0 mm 2 mps 765 mmHg 42%
    13:00 +24°C° 0 mm 2 mps 765 mmHg 40%
    14:00 +24°C° 0 mm 2 mps 764 mmHg 38%
    15:00 +25°C° 0 mm 2 mps 764 mmHg 37%
    16:00 +23°C° 0 mm 2 mps 764 mmHg 40%
    17:00 +21°C° 0 mm 2 mps 764 mmHg 43%
    18:00 +20°C° 0 mm 2 mps 765 mmHg 46%
    19:00 +19°C° 0 mm 2 mps 765 mmHg 48%
    20:00 +18°C° 0 mm 2 mps 765 mmHg 50%
    21:00 +18°C° 0 mm 2 mps 765 mmHg 52%
    22:00 +17°C° 0 mm 2 mps 765 mmHg 58%
    23:00 +16°C° 0 mm 2 mps 765 mmHg 65%

    Tomorrow, 23 October, Wednesday

    Time Temperature Precipitation Wind Pressure Humidity
    00:00 +16°C° 0 mm 3 mps 765 mmHg 71%
    01:00 +15°C° 0 mm 2 mps 765 mmHg 75%
    02:00 +15°C° 0 mm 2 mps 765 mmHg 78%
    03:00 +15°C° 0 mm 1 mps 765 mmHg 82%
    04:00 +14°C° 0 mm 1 mps 765 mmHg 83%
    05:00 +14°C° 0 mm 1 mps 765 mmHg 85%
    06:00 +12°C° 0 mm 0 mps 765 mmHg 87%
    07:00 +15°C° 0 mm 1 mps 765 mmHg 79%
    08:00 +18°C° 0 mm 1 mps 765 mmHg 72%
    09:00 +19°C° 0 mm 1 mps 765 mmHg 64%
    10:00 +20°C° 0 mm 2 mps 765 mmHg 58%
    11:00 +21°C° 0 mm 2 mps 764 mmHg 52%
    12:00 +24°C° 0 mm 2 mps 764 mmHg 46%
    13:00 +24°C° 0 mm 2 mps 764 mmHg 43%
    14:00 +25°C° 0 mm 2 mps 763 mmHg 40%
    15:00 +25°C° 0 mm 2 mps 763 mmHg 38%
    16:00 +24°C° 0 mm 2 mps 763 mmHg 41%
    17:00 +21°C° 0 mm 2 mps 764 mmHg 45%
    18:00 +20°C° 0 mm 2 mps 764 mmHg 49%
    19:00 +19°C° 0 mm 3 mps 764 mmHg 54%
    20:00 +19°C° 0 mm 3 mps 765 mmHg 59%
    21:00 +18°C° 0 mm 4 mps 765 mmHg 64%
    22:00 +17°C° 0 mm 3 mps 765 mmHg 69%
    23:00 +17°C° 0 mm 3 mps 765 mmHg 73%

    Day after tomorrow, 24 October, Thursday

    Time Temperature Precipitation Wind Pressure Humidity
    00:00 +16°C° 0 mm 3 mps 765 mmHg 78%
    01:00 +15°C° 0 mm 2 mps 765 mmHg 80%
    02:00 +15°C° 0 mm 2 mps 765 mmHg 81%
    03:00 +15°C° 0 mm 1 mps 765 mmHg 82%
    04:00 +14°C° 0 mm 1 mps 765 mmHg 83%
    05:00 +14°C° 0 mm 1 mps 765 mmHg 84%
    06:00 +13°C° 0 mm 0 mps 765 mmHg 85%
    07:00 +15°C° 0 mm 1 mps 765 mmHg 78%
    08:00 +18°C° 0 mm 1 mps 765 mmHg 71%
    09:00 +20°C° 0 mm 1 mps 765 mmHg 64%
    10:00 +21°C° 0 mm 1 mps 764 mmHg 59%
    11:00 +22°C° 0 mm 1 mps 764 mmHg 54%
    12:00 +23°C° 0 mm 2 mps 764 mmHg 48%
    13:00 +24°C° 0 mm 2 mps 763 mmHg 46%
    14:00 +24°C° 0 mm 2 mps 763 mmHg 44%
    15:00 +25°C° 0 mm 2 mps 763 mmHg 42%
    16:00 +23°C° 0 mm 2 mps 763 mmHg 48%
    17:00 +21°C° 0 mm 3 mps 763 mmHg 54%
    18:00 +20°C° 0 mm 3 mps 763 mmHg 60%
    19:00 +19°C° 0 mm 3 mps 763 mmHg 63%
    20:00 +19°C° 0 mm 3 mps 764 mmHg 65%
    21:00 +18°C° 0 mm 2 mps 764 mmHg 68%
    22:00 +18°C° 0 mm 2 mps 764 mmHg 68%
    23:00 +18°C° 0 mm 2 mps 764 mmHg 69%

    25 October, Friday

    Time Temperature Precipitation Wind Pressure Humidity
    00:00 +18°C° 0 mm 2 mps 763 mmHg 69%
    01:00 +18°C° 0 mm 2 mps 763 mmHg 71%
    02:00 +19°C° 0 mm 1 mps 763 mmHg 72%
    03:00 +16°C° 0 mm 0 mps 763 mmHg 74%
    04:00 +16°C° 0 mm 0 mps 763 mmHg 77%
    05:00 +15°C° 0 mm 0 mps 763 mmHg 80%
    06:00 +15°C° 0 mm 0 mps 763 mmHg 83%
    07:00 +16°C° 0 mm 0 mps 763 mmHg 77%
    08:00 +17°C° 0 mm 0 mps 763 mmHg 71%
    09:00 +19°C° 0 mm 0 mps 763 mmHg 64%
    10:00 +20°C° 0 mm 0 mps 762 mmHg 59%
    11:00 +23°C° 0 mm 1 mps 762 mmHg 54%
    12:00 +24°C° 0 mm 1 mps 762 mmHg 48%
    13:00 +25°C° 0 mm 1 mps 762 mmHg 47%
    14:00 +25°C° 0 mm 1 mps 761 mmHg 45%
    15:00 +25°C° 0 mm 1 mps 761 mmHg 43%
    16:00 +24°C° 0 mm 2 mps 762 mmHg 46%
    17:00 +23°C° 0 mm 2 mps 762 mmHg 50%
    18:00 +21°C° 0 mm 2 mps 762 mmHg 54%
    19:00 +20°C° 0 mm 2 mps 763 mmHg 59%
    20:00 +19°C° 0 mm 3 mps 763 mmHg 64%
    21:00 +19°C° 0 mm 3 mps 763 mmHg 69%
    22:00 +18°C° 0 mm 3 mps 763 mmHg 75%
    23:00 +17°C° 0 mm 3 mps 763 mmHg 80%

    26 October, Saturday

    Time Temperature Precipitation Wind Pressure Humidity
    00:00 +17°C° 0 mm 2 mps 763 mmHg 85%
    01:00 +17°C° 0 mm 2 mps 763 mmHg 87%
    02:00 +16°C° 0 mm 2 mps 763 mmHg 90%
    03:00 +16°C° 0 mm 2 mps 763 mmHg 92%
    04:00 +16°C° 0.1 mm 1 mps 764 mmHg 91%
    05:00 +16°C° 0.1 mm 1 mps 764 mmHg 90%
    06:00 +16°C° 0.1 mm 1 mps 764 mmHg 90%
    07:00 +18°C° 0.2 mm 1 mps 764 mmHg 86%
    08:00 +17°C° 0.2 mm 2 mps 765 mmHg 82%
    09:00 +18°C° 0.2 mm 2 mps 765 mmHg 79%
    10:00 +18°C° 0.1 mm 2 mps 765 mmHg 75%
    11:00 +19°C° 0.1 mm 2 mps 764 mmHg 71%
    12:00 +19°C° 0.1 mm 2 mps 764 mmHg 67%
    13:00 +20°C° 0 mm 2 mps 764 mmHg 62%
    14:00 +21°C° 0 mm 3 mps 764 mmHg 58%
    15:00 +22°C° 0 mm 3 mps 764 mmHg 53%
    16:00 +20°C° 0 mm 2 mps 764 mmHg 57%
    17:00 +19°C° 0 mm 2 mps 764 mmHg 62%
    18:00 +18°C° 0 mm 2 mps 765 mmHg 66%
    19:00 +18°C° 0 mm 2 mps 765 mmHg 65%
    20:00 +17°C° 0 mm 3 mps 765 mmHg 64%
    21:00 +17°C° 0 mm 3 mps 765 mmHg 63%
    22:00 +16°C° 0 mm 3 mps 765 mmHg 64%
    23:00 +16°C° 0 mm 3 mps 764 mmHg 65%

    27 October, Sunday

    Time Temperature Precipitation Wind Pressure Humidity
    00:00 +14°C° 0 mm 3 mps 764 mmHg 66%
    01:00 +15°C° 0 mm 2 mps 764 mmHg 66%
    02:00 +14°C° 0 mm 2 mps 764 mmHg 66%
    03:00 +14°C° 0 mm 1 mps 764 mmHg 66%
    04:00 +13°C° 0 mm 1 mps 764 mmHg 68%
    05:00 +12°C° 0 mm 0 mps 764 mmHg 69%
    06:00 +12°C° 0 mm 0 mps 764 mmHg 71%
    07:00 +13°C° 0 mm 0 mps 764 mmHg 64%
    08:00 +15°C° 0 mm 0 mps 764 mmHg 57%
    09:00 +17°C° 0 mm 0 mps 764 mmHg 50%
    10:00 +20°C° 0 mm 1 mps 763 mmHg 44%
    11:00 +21°C° 0 mm 1 mps 763 mmHg 37%
    12:00 +23°C° 0 mm 2 mps 762 mmHg 31%
    13:00 +23°C° 0 mm 1 mps 762 mmHg 29%
    14:00 +24°C° 0 mm 1 mps 761 mmHg 27%
    15:00 +24°C° 0 mm 1 mps 761 mmHg 26%
    16:00 +22°C° 0 mm 1 mps 761 mmHg 29%
    17:00 +21°C° 0 mm 1 mps 761 mmHg 33%
    18:00 +19°C° 0 mm 1 mps 761 mmHg 36%
    19:00 +19°C° 0 mm 1 mps 761 mmHg 38%
    20:00 +18°C° 0 mm 1 mps 761 mmHg 40%
    21:00 +18°C° 0 mm 1 mps 761 mmHg 42%
    22:00 +16°C° 0 mm 1 mps 761 mmHg 43%
    23:00 +16°C° 0 mm 1 mps 761 mmHg 44%

    28 October, Monday

    Time Temperature Precipitation Wind Pressure Humidity
    00:00 +15°C° 0 mm 1 mps 760 mmHg 45%
    01:00 +15°C° 0 mm 1 mps 760 mmHg 46%
    02:00 +13°C° 0 mm 0 mps 760 mmHg 48%
    03:00 +13°C° 0 mm 0 mps 759 mmHg 49%
    04:00 +13°C° 0 mm 0 mps 759 mmHg 50%
    05:00 +13°C° 0 mm 0 mps 759 mmHg 51%
    06:00 +12°C° 0 mm 0 mps 759 mmHg 52%
    07:00 +15°C° 0 mm 1 mps 759 mmHg 47%
    08:00 +18°C° 0 mm 1 mps 759 mmHg 43%
    09:00 +20°C° 0 mm 1 mps 759 mmHg 38%
    10:00 +20°C° 0 mm 2 mps 759 mmHg 36%
    11:00 +23°C° 0 mm 2 mps 759 mmHg 33%
    12:00 +24°C° 0 mm 2 mps 758 mmHg 31%
    13:00 +24°C° 0 mm 2 mps 758 mmHg 31%
    14:00 +24°C° 0 mm 2 mps 758 mmHg 31%
    15:00 +25°C° 0 mm 1 mps 758 mmHg 31%
    16:00 +23°C° 0 mm 1 mps 758 mmHg 34%
    17:00 +22°C° 0 mm 1 mps 759 mmHg 37%
    18:00 +20°C° 0 mm 1 mps 759 mmHg 41%
    19:00 +20°C° 0 mm 1 mps 759 mmHg 43%
    20:00 +19°C° 0 mm 1 mps 760 mmHg 44%
    21:00 +19°C° 0 mm 1 mps 760 mmHg 46%
    22:00 +18°C° 0 mm 1 mps 760 mmHg 48%
    23:00 +18°C° 0 mm 1 mps 760 mmHg 49%
    Show more